Regional Weather Roundup
Issued by NWS

Home | Current Version | Previous Version | Text Only | Print | Product List | Glossary On
Versions: 1 2 3 4 5 6 7 8 9 10 11 12 13 14 15 16 17 18 19 20 21 22 23 24 25 26 27 28 29 30 31 32 33 34 35 36 37 38 39 40 41 42 43 44 45 46 47 48 49 50
000
ASUS43 KMKX 251911
RWRWI

WISCONSIN REGIONAL WEATHER ROUNDUP
NATIONAL WEATHER SERVICE MILWAUKEE/SULLIVAN WI
200 PM CDT SUN JUN 25 2017

NOTE: "FAIR" INDICATES FEW OR NO CLOUDS BELOW 12,000 FEET WITH NO
SIGNIFICANT WEATHER AND/OR OBSTRUCTIONS TO VISIBILITY.

WIZ001-002-006>008-014>016-023>028-252000-
NORTHWEST WISCONSIN

CITY           SKY/WX    TMP DP  RH WIND       PRES   REMARKS
SUPERIOR ARPT  NOT AVBL
ASHLAND        RAIN      53  51  93 NW9G21    30.05R FOG
HAYWARD        LGT RAIN  53  50  89 VRB5      30.09R
SIREN          CLOUDY    59  47  64 N13       30.11R
CUMBERLAND     CLOUDY    55  48  76 NW16G22   30.10S
RICE LAKE      CLOUDY    57  53  86 W9        30.10F
CHETEK         LGT RAIN  59  55  86 NW9       30.09S
LADYSMITH      LGT RAIN  55  52  88 W14       30.08S
EAU CLAIRE     CLOUDY    59  55  87 W9        30.08F
MENOMONIE      CLOUDY    59  58  99 W14       30.10S
NEW RICHMOND   CLOUDY    60  50  69 NW15G24   30.13S
OSCEOLA        CLOUDY    61  48  61 NW12G17   30.15F
$$

WIZ003>005-009-010-017-018-252000-
NORTH CENTRAL WISCONSIN

CITY           SKY/WX    TMP DP  RH WIND       PRES   REMARKS
MANITOWISH WTR RAIN      55  54  97 CALM      30.01S
ARBOR VITAE    MOSUNNY   62  52  68 W7        30.00S
WOODRUFF       MOSUNNY   62  52  68 W7        30.00S
RHINELANDER    CLOUDY    63  53  70 SW13      30.01S
EAGLE RIVER    LGT RAIN  56  50  80 N8        30.00F
LAND O LAKES   CLOUDY    60  50  69 SW6       30.02R THUNDER
PHILLIPS       HVY RAIN  55  53  96 NW10      30.04R
TOMAHAWK       NOT AVBL
MEDFORD        CLOUDY    61  50  68 W13       30.04F
MERRILL        CLOUDY    62  51  68 W9G18     30.03F
$$

WIZ029-030-035-036-043>047-252000-
CENTRAL WISCONSIN

CITY           SKY/WX    TMP DP  RH WIND       PRES   REMARKS
WAUSAU         CLOUDY    62  52  69 W14       30.02F
MOSINEE        LGT RAIN  57  52  82 W15G23    30.06F
MARSHFIELD     CLOUDY    59  53  80 W14       30.06S
STEVENS POINT  LGT RAIN  56  53  89 W8G22     30.06S
WAUPACA        PTSUNNY   66  49  54 W12G18    30.05F
WAUTOMA        CLOUDY    64  51  62 W8        30.06F
WISC RAPIDS    LGT RAIN  57  54  89 N10       30.08S FOG
CAMP DOUGLAS   PTSUNNY   63  52  67 W16       30.08F
$$

WIZ011>013-019>022-031-037>040-048>050-252000-
NORTHEAST WISCONSIN

CITY           SKY/WX    TMP DP  RH WIND       PRES   REMARKS
ANTIGO         PTSUNNY   61  54  77 W9        30.03S
SHAWANO        PTSUNNY   71  51  49 W16       30.00S
OCONTO         CLOUDY    68  51  54 W9G16     29.98F
STURGEON BAY     N/A     63  53  70 W8          N/A
GREEN BAY      LGT RAIN  66  54  65 W13       30.01S
MANITOWOC      MOSUNNY   65  50  58 W16       30.01F
APPLETON       PTSUNNY   64  46  52 W17       30.02F
CLINTONVILLE   SUNNY     68  48  49 W13G21    30.02S
OSHKOSH        MOSUNNY   66  51  58 W14G20    30.04S
$$

WIZ032>034-041-042-053>061-252000-
SOUTHWEST WISCONSIN

CITY           SKY/WX    TMP DP  RH WIND       PRES   REMARKS
LA CROSSE      PTSUNNY   71  51  49 W13G22    30.11S
SPARTA         CLOUDY    61  52  71 W8        30.11S
VIROQUA        PTSUNNY   62  53  73 W9G18     30.13S
BOSCOBEL       CLOUDY    63  49  60 W9        30.14F
PRAIRIE DU CHI CLOUDY    61  48  63 W12G22    30.16S
PLATTEVILLE    CLOUDY    60  51  72 W16G22    30.17R
$$

WIZ056-057-062-063-064-067-068-252000-
SOUTH CENTRAL WISCONSIN

CITY           SKY/WX    TMP DP  RH WIND       PRES   REMARKS
REEDSBURG      CLOUDY    60  51  70 W12       30.10S
BARABOO/DELLS  CLOUDY    61  49  65 W10       30.10S
LONE ROCK      CLOUDY    63  50  62 W15       30.12F
MINERAL POINT  CLOUDY    61  52  72 W15       30.14S
MADISON        PTSUNNY   62  48  60 W9G17     30.10S
MIDDLETON      CLOUDY    63  51  64 W14G22    30.11S
WATERTOWN      CLOUDY    64  51  61 W13       30.08S
MONROE         CLOUDY    63  45  51 W15G22    30.12S
JANESVILLE     PTSUNNY   66  48  52 W20G25    30.10S
$$

WIZ051-052-058>065-066-070>072-252000-
SOUTHEAST WISCONSIN

CITY           SKY/WX    TMP DP  RH WIND       PRES   REMARKS
MILWAUKEE      PTSUNNY   71  49  45 W17       30.06S
WAUKESHA       PTSUNNY   64  48  55 W15G23    30.08S
MILWAUKEE/TIMM PTSUNNY   70  45  40 W17G23    30.06S
RACINE         MOSUNNY   71  48  43 W12G23    30.08S
KENOSHA        PTSUNNY   66  49  54 W14       30.08S
FOND DU LAC    MOSUNNY   67  49  52 W13G22    30.05F
SHEBOYGAN      PTSUNNY   67  52  58 W13G25    30.03S
WEST BEND      MOSUNNY   64  46  52 W16G22    30.05F
JUNEAU         PTSUNNY   64  49  56 W12G20    30.08F
$$

LSZ147-162-252000-
LAKE SUPERIOR

STATION/POSITION TIME  TEMP    WIND        PRES    WAVE
                       AIR SEA DIR/SP/G            HT/PER
                 (UTC) (F)     (DEG/KT/KT) (MB)    (FT/S)
W MID LAKE BUOY  1850   42 39   70/  6/  8 1017.4R   0
DEVILS ISLAND    1900   52     280/ 10/ 11 1017.0S
PORT WING        1658   57     280/ 18/ 25 1016.9
SAXON HARBOR     1830   59      30/  4/  4 1016.3S
$$

LMZ867-665-643>646-252000-
LAKE MICHIGAN

STATION/POSITION TIME  TEMP    WIND        PRES    WAVE
                       AIR SEA DIR/SP/G            HT/PER
                 (UTC) (F)     (DEG/KT/KT) (MB)    (FT/S)
CHAMBERS ISLAND  1830   63      40/  2/  3 1014.9S
S GREEN BAY BUOY 1900   64     220/  4/  4 1015.3
N MID LAKE BUOY  1850   57 58  240/  4/  4 1015.9F   1/ 3
NORTHPORT PIER   1840   62     330/  5/  7 1014.9F
KEWAUNEE LAKESHO 1842   65     270/  4/  7 1015.5S
SHEBOYGAN LAKESH 1900   66     270/ 11/ 14 1016.4F
PORT WASHINGTON  1840   70     280/ 10/ 15 1017.9S
ATWATER BUOY     1809   64 57  270/ 12/ 19 1017.6F
MILWAUKEE LAKESH 1850   66     260/ 17/ 21   N/A
S MID LAKE BUOY  1850   62 61  290/ 10/ 12 1018.2S   2/ 4
KENOSHA   LAKESH 1900   68     270/ 10/ 23 1017.9
$$

TC  - TEMPERATURE IN CELSIUS
VSB - VISIBILITY IN STATUTE MILES
WCI - WIND CHILL INDEX
HX  - HEAT INDEX





USA.gov is the U.S. government's official web portal to all federal, state and local government web resources and services.